Location: Winter Haven
(28.0220°N, 81.7330°W)
Time: 18:21:11
(UTC-04:00)

Amateur Radio Satellites - All Passes

Search period start: 27 September 2016 17:51
Search period end: 28 September 2016 17:51
Location: Winter Haven, 28.0220°N, 81.7330°W

Satellite Date Start Highest point End Downlink Frequencies (MHz)
Time Altitude Azimuth
AO-7 27 Sep 17:53:49 17:59:55 22° 262° (W) 18:06:04 29.400- 29.500
MOZHAYETS 4 27 Sep 17:57:22 18:01:07 25° 288° (WNW) 18:04:52
LilacSat-2 27 Sep 18:06:03 18:07:30 12° 71° (ENE) 18:08:58 437.200
GOMX 1 27 Sep 18:23:14 18:28:09 35° 74° (ENE) 18:32:55 467.674
NOAA 18 27 Sep 18:24:38 18:28:59 25° 69° (ENE) 18:33:19 137.9125
KKS-1 27 Sep 18:26:13 18:29:12 18° 290° (WNW) 18:32:11 437.445
BRITE-PL 27 Sep 18:30:51 18:36:31 81° 259° (WSW) 18:42:13 437.365/2234.400
AIST 1 27 Sep 18:34:36 18:36:41 13° 272° (W) 18:38:45
HORYU 2 27 Sep 18:36:46 18:40:38 30° 262° (W) 18:44:31 437.375
O/OREOS (USA 219) 27 Sep 18:46:23 18:50:53 57° 255° (WSW) 18:55:21 437.305
DOVE 4 27 Sep 18:47:34 18:51:39 25° 73° (ENE) 18:55:36 437.250
CUSAT 1 27 Sep 18:53:53 18:58:12 22° 84° (E) 19:03:15 437.405
STARS 27 Sep 19:01:17 19:03:50 15° 290° (WNW) 19:06:23 437.465
NOAA 15 27 Sep 19:10:33 19:15:48 70° 258° (WSW) 19:21:07 137.62
CUBESAT XI-V 27 Sep 19:15:54 19:19:54 28° 287° (WNW) 19:23:51 437.345
HO-68 27 Sep 19:22:12 19:27:04 20° 64° (ENE) 19:31:56 435.675
Cubesat XI-IV 27 Sep 19:25:30 19:30:44 62° 258° (WSW) 19:36:00 437.490
CUTE-I 27 Sep 19:25:47 19:31:00 61° 258° (WSW) 19:36:15 437.470
LilacSat-2 27 Sep 19:38:11 19:41:28 29° 262° (W) 19:44:46 437.200
JUGNU 27 Sep 19:51:11 19:55:38 22° 165° (SSE) 20:00:05 437.505
ISS 27 Sep 19:54:26 19:57:33 45° 130° (SE) 20:00:40 145.825
CINEMA 3 27 Sep 20:01:55 20:06:08 37° 75° (ENE) 20:10:10 145.822/145.860
GOMX 1 27 Sep 20:02:01 20:06:07 22° 264° (W) 20:10:10 467.674
NOAA 18 27 Sep 20:04:36 20:09:25 31° 261° (W) 20:14:14 137.9125
RS-15 27 Sep 20:04:54 20:16:03 65° 111° (ESE) 20:27:49 29.354- 29.394
STRAND 1 27 Sep 20:09:46 20:14:29 36° 99° (E) 20:19:11 437.568
DANDE 27 Sep 20:20:48 20:25:04 45° 90° (E) 20:30:43 436.750
CUTE 1.7 + AOD 2 27 Sep 20:24:00 20:28:02 46° 75° (ENE) 20:32:05 437.475
DOVE 4 27 Sep 20:24:52 20:29:09 27° 262° (W) 20:33:18 437.250
CANX-2 27 Sep 20:25:05 20:29:12 57° 76° (ENE) 20:33:22 2200.000
SEEDS 27 Sep 20:26:22 20:30:04 32° 74° (ENE) 20:33:50 437.485
CUSAT 1 27 Sep 20:34:12 20:39:33 42° 284° (WNW) 20:46:14 437.405
Cosmos 2499 27 Sep 20:44:40 20:52:17 59° 83° (E) 21:00:28 435.465 / 435.565
GONETS M04 27 Sep 20:46:05 20:54:52 70° 83° (E) 21:03:32
AAUSAT CUBESAT 2 27 Sep 20:49:52 20:53:31 31° 74° (ENE) 20:57:11 437.432
SRMSAT 27 Sep 20:49:52 20:51:19 11° 159° (SSE) 20:52:46 437.500
AO-85 27 Sep 20:57:52 21:02:57 46° 113° (ESE) 21:07:49 145.980
HO-68 27 Sep 21:07:07 21:14:10 60° 257° (WSW) 21:21:14 435.675
CUBEBUG 2 27 Sep 21:11:19 21:15:29 59° 77° (ENE) 21:19:36 437.445
FUNcube-1 27 Sep 21:18:55 21:22:12 23° 73° (ENE) 21:25:28 145.935
UWE-3 27 Sep 21:29:58 21:34:07 63° 77° (ENE) 21:38:13 435.000/436.395/437.385
ISS 27 Sep 21:32:53 21:34:12 12° 323° (NW) 21:35:32 145.825
COMPASS 1 27 Sep 21:33:27 21:37:28 48° 260° (W) 21:41:32 437.405
JUGNU 27 Sep 21:38:54 21:44:15 35° 173° (S) 21:49:33 437.505
CINEMA 3 27 Sep 21:40:59 21:43:15 14° 264° (W) 21:45:28 145.822/145.860
STRAND 1 27 Sep 21:49:44 21:53:20 19° 291° (WNW) 21:56:55 437.568
Oscar 11 27 Sep 21:58:04 22:02:21 84° 77° (ENE) 22:06:40 145.826/435.025
ZACube-1 27 Sep 21:59:50 22:03:59 89° 248° (WSW) 22:08:08 437.345
SEEDS 27 Sep 22:03:39 22:05:46 14° 265° (W) 22:07:55 437.485
DANDE 27 Sep 22:05:51 22:08:29 14° 294° (WNW) 22:11:28 436.750
DELFI C3 27 Sep 22:11:45 22:15:29 40° 75° (ENE) 22:19:15 145.870
RS-15 27 Sep 22:19:14 22:29:10 32° 310° (NW) 22:39:36 29.354- 29.394
PRISM 27 Sep 22:22:40 22:26:48 81° 281° (WNW) 22:30:51 437.425
HUMSAT D 27 Sep 22:22:52 22:26:11 25° 73° (ENE) 22:29:32 437.325/437.525
AAUSAT CUBESAT 2 27 Sep 22:26:50 22:28:59 14° 265° (W) 22:31:08 437.432
SRMSAT 27 Sep 22:35:18 22:39:59 24° 166° (SSE) 22:44:41 437.500
Cosmos 2499 27 Sep 22:39:30 22:44:49 20° 274° (W) 22:50:24 435.465 / 435.565
AO-85 27 Sep 22:39:59 22:43:32 18° 304° (NW) 22:46:58 145.980
GONETS M04 27 Sep 22:45:26 22:50:42 18° 278° (W) 22:55:57
UNISAT 6 27 Sep 22:46:05 22:49:12 19° 96° (E) 22:52:22 437.425
FUNcube-1 27 Sep 22:55:28 22:58:20 18° 264° (W) 23:01:11 145.935
ESTCUBE 1 27 Sep 23:03:08 23:03:39 10° 67° (ENE) 23:04:11 437.505/2401.250
ANTELSAT 27 Sep 23:20:25 23:24:44 49° 100° (E) 23:29:09 437.575/2403.000
JUGNU 27 Sep 23:27:30 23:32:55 37° 184° (S) 23:38:16 437.505
TIGRISAT 27 Sep 23:40:52 23:45:19 85° 102° (ESE) 23:49:52 435.000
M-CUBED/EXP-1 PRIME 27 Sep 23:43:41 23:45:40 13° 67° (ENE) 23:47:35 437.505
50 SAT 27 Sep 23:46:13 23:47:28 11° 70° (ENE) 23:48:43 437.505
AISAT 27 Sep 23:52:49 23:56:08 21° 71° (ENE) 23:59:26 437.250
HUMSAT D 27 Sep 23:59:08 00:01:43 16° 264° (W) 00:04:20 437.325/437.525
DUCHIFAT 1 28 Sep 00:01:19 00:02:50 12° 95° (E) 00:04:22 145.980
QB50P1 28 Sep 00:02:29 00:04:53 15° 96° (E) 00:07:18 145.935-145.965
UKube-1 28 Sep 00:02:52 00:03:40 10° 68° (ENE) 00:04:28 .
POPSAT HIP 1 28 Sep 00:15:13 00:18:28 21° 97° (E) 00:21:43 437.405
UNISAT 6 28 Sep 00:22:03 00:25:49 28° 287° (WNW) 00:29:40 437.425
SRMSAT 28 Sep 00:23:23 00:28:45 36° 175° (S) 00:34:07 437.500
DX 1 28 Sep 00:27:59 00:31:50 31° 73° (ENE) 00:35:41 434.975-435.025
NANOSAT C BR1 28 Sep 00:31:09 00:34:56 33° 99° (E) 00:38:44 145.865
VELOX 1 28 Sep 00:35:10 00:39:35 67° 77° (ENE) 00:44:00 145.980
ESTCUBE 1 28 Sep 00:35:31 00:39:55 53° 260° (W) 00:44:22 437.505/2401.250
AUBIESAT-1 28 Sep 00:38:29 00:42:36 52° 72° (ENE) 00:46:26 437.475
CUBEBUG 1 28 Sep 00:39:37 00:44:03 79° 258° (WSW) 00:48:28 437.445
JAS-2 28 Sep 00:52:40 01:00:16 53° 99° (E) 01:07:18 435.910
QB50P2 28 Sep 00:54:07 00:58:21 81° 101° (E) 01:02:35 145.880/145.840
POLYITAN 1 28 Sep 00:56:20 01:00:34 81° 102° (ESE) 01:04:48 437.675
ANTELSAT 28 Sep 00:59:56 01:00:59 11° 291° (WNW) 01:02:02 437.575/2403.000
BEESAT 3 28 Sep 01:03:34 01:07:22 60° 114° (ESE) 01:11:14 437.485
TISAT 1 28 Sep 01:08:32 01:10:21 13° 69° (ENE) 01:12:08 437.305
M-CUBED/EXP-1 PRIME 28 Sep 01:15:53 01:19:54 37° 256° (WSW) 01:23:39 437.505
JUGNU 28 Sep 01:16:44 01:21:31 26° 193° (SSW) 01:26:17 437.505
50 SAT 28 Sep 01:17:30 01:20:37 27° 262° (W) 01:23:46 437.505
SPROUT 28 Sep 01:20:59 01:25:13 63° 258° (WSW) 01:29:27 437.525
AISAT 28 Sep 01:28:44 01:32:23 25° 262° (W) 01:36:03 437.250
DUCHIFAT 1 28 Sep 01:34:43 01:38:35 36° 285° (WNW) 01:42:26 145.980
UKube-1 28 Sep 01:35:04 01:39:13 47° 260° (W) 01:43:24 .
SO-50 28 Sep 01:35:49 01:40:21 85° 63° (ENE) 01:44:46 436.795
QB50P1 28 Sep 01:36:58 01:40:38 30° 286° (WNW) 01:44:18 145.935-145.965
BUGSAT 1 28 Sep 01:37:04 01:41:06 81° 103° (ESE) 01:45:08 437.445
Oscar 19 28 Sep 01:39:54 01:42:11 13° 94° (E) 01:44:28 437.125/150
POPSAT HIP 1 28 Sep 01:50:55 01:54:05 21° 288° (WNW) 01:57:14 437.405
BEESAT 2 28 Sep 01:58:57 02:02:48 57° 297° (WNW) 02:06:42 435.950
DX 1 28 Sep 02:05:21 02:07:59 16° 264° (W) 02:10:38 434.975-435.025
NANOSAT C BR1 28 Sep 02:08:11 02:10:20 14° 290° (WNW) 02:12:28 145.865
SRMSAT 28 Sep 02:12:14 02:17:35 36° 185° (S) 02:22:55 437.500
Cosmos 2491 28 Sep 02:29:16 02:37:37 45° 80° (E) 02:45:53 435.465 / 435.565
Gurwin Techsat 1B 28 Sep 02:35:49 02:40:06 24° 97° (E) 02:44:21 435.225
JAS-2 28 Sep 02:38:35 02:44:39 26° 294° (WNW) 02:50:29 435.910
TISAT 1 28 Sep 02:41:44 02:45:36 36° 261° (W) 02:49:28 437.305
ITUPSAT 1 28 Sep 02:59:37 03:04:11 48° 74° (ENE) 03:08:45 437.325
JUGNU 28 Sep 03:07:53 03:10:00 12° 200° (SSW) 03:12:08 437.505
SWISSCUBE 28 Sep 03:12:29 03:17:13 80° 75° (ENE) 03:21:59 437.505
Oscar 19 28 Sep 03:16:42 03:21:40 50° 286° (WNW) 03:26:36 437.125/150
YUBILEINY 28 Sep 03:19:33 03:28:00 54° 90° (E) 03:36:25 435.215
BEESAT 28 Sep 03:25:28 03:30:12 81° 258° (WSW) 03:34:58 436.000
KKS-1 28 Sep 03:42:37 03:44:07 12° 68° (ENE) 03:45:37 437.445
PCSat 28 Sep 03:58:58 04:03:26 27° 107° (ESE) 04:07:55 145.827
SRMSAT 28 Sep 04:01:45 04:06:19 23° 195° (SSW) 04:10:53 437.500
ISS 28 Sep 04:04:10 04:06:57 25° 42° (NE) 04:09:43 145.825
AO-7 28 Sep 04:09:00 04:16:03 30° 99° (E) 04:23:04 29.400- 29.500
ITAMSAT 1 28 Sep 04:09:45 04:14:54 58° 101° (ESE) 04:20:01 435.822/435.867
Cosmos 2504 28 Sep 04:11:20 04:18:16 40° 90° (E) 04:24:54 435.465 / 435.565
Gurwin Techsat 1B 28 Sep 04:15:22 04:19:55 30° 289° (WNW) 04:24:28 435.225
STARS 28 Sep 04:15:39 04:17:32 13° 69° (ENE) 04:19:26 437.465
AIST 2 28 Sep 04:21:45 04:25:42 49° 298° (WNW) 04:29:42 435.215
Cosmos 2491 28 Sep 04:26:44 04:34:00 30° 274° (W) 04:41:15 435.465 / 435.565
ITUPSAT 1 28 Sep 04:40:28 04:42:09 12° 266° (W) 04:43:50 437.325
MOZHAYETS 4 28 Sep 04:51:17 04:55:45 58° 259° (W) 05:00:16
RS-15 28 Sep 05:15:55 05:27:18 40° 54° (NE) 05:38:17 29.354- 29.394
KKS-1 28 Sep 05:15:57 05:20:13 45° 260° (W) 05:24:29 437.445
AIST 1 28 Sep 05:17:43 05:21:20 26° 90° (E) 05:24:58
YUBILEINY 28 Sep 05:18:08 05:24:59 25° 285° (WNW) 05:31:52 435.215
CUSAT 1 28 Sep 05:38:00 05:40:36 12° 65° (ENE) 05:43:03 437.405
ISS 28 Sep 05:40:58 05:43:16 18° 234° (SW) 05:45:33 145.825
PCSat 28 Sep 05:42:00 05:46:39 29° 300° (WNW) 05:51:20 145.827
STARS 28 Sep 05:49:21 05:53:29 40° 260° (W) 05:57:36 437.465
ITAMSAT 1 28 Sep 05:51:37 05:53:48 13° 294° (WNW) 05:55:59 435.822/435.867
AO-7 28 Sep 06:01:02 06:08:48 46° 292° (WNW) 06:16:34 29.400- 29.500
Cosmos 2504 28 Sep 06:05:31 06:11:35 26° 282° (WNW) 06:17:28 435.465 / 435.565
CUBESAT XI-V 28 Sep 06:11:12 06:15:51 66° 259° (W) 06:20:32 437.345
HORYU 2 28 Sep 06:33:45 06:38:14 87° 103° (ESE) 06:42:42 437.375
GOMX 1 28 Sep 06:34:14 06:36:18 13° 94° (E) 06:38:19 467.674
BRITE-PL 28 Sep 06:44:00 06:48:34 57° 100° (E) 06:52:48 437.365/2234.400
NOAA 18 28 Sep 06:53:54 06:57:39 19° 96° (E) 07:01:23 137.9125
AIST 1 28 Sep 06:55:54 06:58:50 17° 282° (WNW) 07:01:46
DANDE 28 Sep 07:06:01 07:13:30 35° 75° (ENE) 07:20:11 436.750
O/OREOS (USA 219) 28 Sep 07:12:34 07:16:43 37° 104° (ESE) 07:20:56 437.305
CUSAT 1 28 Sep 07:16:21 07:23:47 85° 264° (W) 07:29:39 437.405
AO-85 28 Sep 07:16:57 07:20:56 70° 63° (ENE) 07:24:45 145.980
LilacSat-2 28 Sep 07:17:41 07:21:24 45° 100° (E) 07:25:06 437.200
STRAND 1 28 Sep 07:19:18 07:23:24 25° 71° (ENE) 07:27:32 437.568
RS-15 28 Sep 07:28:13 07:39:55 53° 252° (WSW) 07:51:13 29.354- 29.394
NOAA 15 28 Sep 07:32:46 07:38:05 82° 103° (ESE) 07:43:20 137.62
GONETS M04 28 Sep 07:46:57 07:50:56 14° 81° (E) 07:54:55
Cubesat XI-IV 28 Sep 07:49:41 07:55:03 85° 284° (WNW) 08:00:25 437.490
CUTE-I 28 Sep 07:49:46 07:55:08 84° 284° (WNW) 08:00:30 437.470
CINEMA 3 28 Sep 08:04:32 08:06:47 14° 96° (E) 08:09:05 145.822/145.860
GOMX 1 28 Sep 08:10:40 08:14:28 31° 287° (WNW) 08:18:08 467.674
CUTE 1.7 + AOD 2 28 Sep 08:17:14 08:19:32 14° 95° (E) 08:21:49 437.475
CANX-2 28 Sep 08:18:01 08:20:53 17° 95° (E) 08:23:44 2200.000
DOVE 4 28 Sep 08:30:19 08:34:19 48° 284° (WNW) 08:38:19 437.250
NOAA 18 28 Sep 08:33:15 08:38:20 41° 288° (WNW) 08:43:26 137.9125
HO-68 28 Sep 08:42:39 08:49:16 40° 100° (E) 08:55:51 435.675
DANDE 28 Sep 08:48:38 08:56:11 40° 271° (W) 09:02:55 436.750
O/OREOS (USA 219) 28 Sep 08:53:43 08:56:12 14° 296° (WNW) 08:58:44 437.305
STRAND 1 28 Sep 08:58:12 09:02:24 26° 262° (W) 09:06:40 437.568
PRISM 28 Sep 09:05:26 09:08:56 27° 73° (ENE) 09:12:27 437.425
CUBEBUG 2 28 Sep 09:09:14 09:12:36 22° 97° (E) 09:16:02 437.445
Cosmos 2499 28 Sep 09:13:41 09:20:45 55° 92° (E) 09:27:35 435.465 / 435.565
COMPASS 1 28 Sep 09:23:03 09:27:03 42° 99° (E) 09:31:02 437.405
UWE-3 28 Sep 09:26:40 09:30:06 22° 97° (E) 09:33:36 435.000/436.395/437.385
GONETS M04 28 Sep 09:37:43 09:46:33 84° 275° (W) 09:55:27
CINEMA 3 28 Sep 09:40:11 09:43:55 31° 285° (WNW) 09:47:43 145.822/145.860
CUTE 1.7 + AOD 2 28 Sep 09:51:32 09:55:22 32° 286° (WNW) 09:59:11 437.475
SEEDS 28 Sep 09:52:08 09:56:13 47° 285° (WNW) 10:00:18 437.485
Oscar 11 28 Sep 09:52:38 09:56:18 26° 97° (E) 09:59:56 145.826/435.025
CANX-2 28 Sep 09:53:03 09:56:39 27° 287° (WNW) 10:00:15 2200.000
ZACube-1 28 Sep 09:54:57 09:58:48 30° 98° (E) 10:02:43 437.345
PHONESAT 2.4 28 Sep 10:07:16 10:10:10 72° 147° (SSE) 10:13:05 2401.200-2431.200
ANTELSAT 28 Sep 10:13:43 10:16:36 18° 71° (ENE) 10:19:29 437.575/2403.000
AAUSAT CUBESAT 2 28 Sep 10:13:44 10:17:48 51° 284° (WNW) 10:21:50 437.432
HO-68 28 Sep 10:30:42 10:36:41 30° 293° (WNW) 10:42:39 435.675
TIGRISAT 28 Sep 10:33:14 10:36:57 29° 73° (ENE) 10:40:38 435.000
PRISM 28 Sep 10:41:32 10:44:10 16° 264° (W) 10:46:48 437.425
CUBEBUG 2 28 Sep 10:45:40 10:49:04 23° 287° (WNW) 10:52:32 437.445
FUNcube-1 28 Sep 10:48:25 10:52:44 60° 284° (WNW) 10:57:08 145.935
COMPASS 1 28 Sep 11:01:10 11:02:08 11° 291° (WNW) 11:03:08 437.405
UWE-3 28 Sep 11:03:00 11:06:23 22° 287° (WNW) 11:09:50 435.000/436.395/437.385
BEESAT 3 28 Sep 11:04:20 11:08:17 67° 63° (ENE) 11:12:13 437.485
Cosmos 2499 28 Sep 11:09:30 11:14:04 18° 285° (WNW) 11:18:38 435.465 / 435.565
UNISAT 6 28 Sep 11:13:20 11:17:37 74° 258° (WSW) 11:21:53 437.425
NANOSAT C BR1 28 Sep 11:19:40 11:20:10 10° 69° (ENE) 11:20:41 145.865
Oscar 11 28 Sep 11:29:09 11:32:11 19° 289° (WNW) 11:35:12 145.826/435.025
DELFI C3 28 Sep 11:30:33 11:34:21 42° 285° (WNW) 11:38:07 145.870
ZACube-1 28 Sep 11:32:00 11:34:49 17° 289° (WNW) 11:37:40 437.345
QB50P2 28 Sep 11:40:28 11:43:49 23° 72° (ENE) 11:47:10 145.880/145.840
GONETS M04 28 Sep 11:41:52 11:44:27 11° 291° (WNW) 11:47:03
POLYITAN 1 28 Sep 11:42:42 11:46:02 23° 72° (ENE) 11:49:21 437.675
PHONESAT 2.4 28 Sep 11:44:35 11:46:30 16° 341° (NNW) 11:48:25 2401.200-2431.200
HUMSAT D 28 Sep 11:47:26 11:51:39 63° 283° (WNW) 11:55:54 437.325/437.525
ANTELSAT 28 Sep 11:49:32 11:53:05 25° 262° (W) 11:56:38 437.575/2403.000
BEESAT 2 28 Sep 12:00:49 12:04:42 50° 247° (WSW) 12:08:33 435.950
TIGRISAT 28 Sep 12:11:07 12:13:36 15° 264° (W) 12:16:05 435.000
DUCHIFAT 1 28 Sep 12:19:06 12:23:14 60° 76° (ENE) 12:27:20 145.980
BUGSAT 1 28 Sep 12:20:38 12:23:46 21° 72° (ENE) 12:26:53 437.445
QB50P1 28 Sep 12:21:41 12:25:52 78° 77° (ENE) 12:30:04 145.935-145.965
VELOX 1 28 Sep 12:32:57 12:36:19 22° 97° (E) 12:39:41 145.980
ESTCUBE 1 28 Sep 12:34:49 12:39:16 55° 100° (E) 12:43:40 437.505/2401.250
POPSAT HIP 1 28 Sep 12:35:15 12:39:27 71° 259° (WSW) 12:43:37 437.405
CUBEBUG 1 28 Sep 12:35:30 12:39:21 31° 99° (E) 12:43:10 437.445
JAS-2 28 Sep 12:40:49 12:46:58 79° 76° (ENE) 12:54:01 435.910
AIST 2 28 Sep 12:50:56 12:53:05 14° 55° (NE) 12:55:13 435.215
NANOSAT C BR1 28 Sep 12:51:27 12:55:27 44° 260° (W) 12:59:27 145.865
50 SAT 28 Sep 12:51:31 12:54:53 34° 99° (E) 12:58:11 437.505
M-CUBED/EXP-1 PRIME 28 Sep 13:01:59 13:04:31 21° 103° (ESE) 13:07:06 437.505
SPROUT 28 Sep 13:13:52 13:17:48 36° 99° (E) 13:21:42 437.525
QB50P2 28 Sep 13:16:29 13:19:29 19° 264° (W) 13:22:30 145.880/145.840
POLYITAN 1 28 Sep 13:18:43 13:21:42 19° 263° (W) 13:24:41 437.675
AISAT 28 Sep 13:24:50 13:29:12 75° 285° (WNW) 13:33:33 437.250
UKube-1 28 Sep 13:28:53 13:33:02 47° 100° (E) 13:37:10 .
YUBILEINY 28 Sep 13:40:30 13:45:51 17° 72° (ENE) 13:51:10 435.215
Gurwin Techsat 1B 28 Sep 13:50:39 13:54:27 20° 69° (ENE) 13:58:15 435.225
BUGSAT 1 28 Sep 13:55:56 13:58:59 20° 263° (W) 14:02:01 437.445
AUBIESAT-1 28 Sep 13:57:51 14:01:06 60° 287° (WNW) 14:04:27 437.475
DX 1 28 Sep 13:58:32 14:02:43 50° 285° (WNW) 14:06:54 434.975-435.025
SO-50 28 Sep 14:06:31 14:07:35 11° 107° (ESE) 14:08:41 436.795
VELOX 1 28 Sep 14:09:12 14:12:38 23° 289° (WNW) 14:16:03 145.980
CUBEBUG 1 28 Sep 14:12:49 14:15:18 15° 290° (WNW) 14:17:46 437.445
Oscar 19 28 Sep 14:26:09 14:31:20 72° 258° (WSW) 14:36:32 437.125/150
AIST 2 28 Sep 14:27:45 14:31:40 39° 248° (WSW) 14:35:34 435.215
JAS-2 28 Sep 14:31:02 14:32:49 11° 271° (W) 14:34:39 435.910
TISAT 1 28 Sep 14:32:01 14:36:06 56° 100° (E) 14:40:12 437.305
PCSat 28 Sep 14:35:58 14:41:15 52° 64° (ENE) 14:46:30 145.827
M-CUBED/EXP-1 PRIME 28 Sep 14:37:32 14:38:51 12° 293° (WNW) 14:40:09 437.505
SPROUT 28 Sep 14:51:24 14:53:21 13° 290° (WNW) 14:55:18 437.525
PHONESAT 2.4 28 Sep 14:59:33 15:00:30 11° 14° (NNE) 15:01:27 2401.200-2431.200
AO-7 28 Sep 15:01:31 15:07:40 24° 62° (ENE) 15:13:47 29.400- 29.500
ITUPSAT 1 28 Sep 15:07:40 15:11:24 22° 97° (E) 15:15:06 437.325
UKube-1 28 Sep 15:07:59 15:08:35 10° 292° (WNW) 15:09:12 .
SWISSCUBE 28 Sep 15:19:50 15:24:15 36° 99° (E) 15:28:38 437.505
ITAMSAT 1 28 Sep 15:20:57 15:25:48 43° 73° (ENE) 15:30:40 435.822/435.867
Cosmos 2491 28 Sep 15:21:01 15:29:38 65° 91° (E) 15:38:19 435.465 / 435.565
Gurwin Techsat 1B 28 Sep 15:29:14 15:34:05 36° 261° (W) 15:38:56 435.225
BEESAT 28 Sep 15:32:36 15:37:11 45° 100° (E) 15:41:45 436.000
YUBILEINY 28 Sep 15:34:36 15:43:14 72° 267° (W) 15:51:51 435.215
SO-50 28 Sep 15:42:46 15:47:33 58° 298° (WNW) 15:52:18 436.795
Cosmos 2504 28 Sep 16:03:08 16:10:41 69° 83° (E) 16:18:49 435.465 / 435.565
PCSat 28 Sep 16:21:22 16:24:07 14° 256° (WSW) 16:26:52 145.827
PHONESAT 2.4 28 Sep 16:34:14 16:37:04 45° 28° (NNE) 16:39:57 2401.200-2431.200
ITUPSAT 1 28 Sep 16:45:06 16:49:06 27° 289° (WNW) 16:53:06 437.325
AO-7 28 Sep 16:51:33 16:59:45 62° 256° (WSW) 17:07:58 29.400- 29.500
MOZHAYETS 4 28 Sep 16:53:03 16:57:38 56° 100° (E) 17:02:11
SWISSCUBE 28 Sep 16:58:39 17:01:41 17° 291° (WNW) 17:04:43 437.505
ITAMSAT 1 28 Sep 17:02:18 17:05:20 16° 264° (W) 17:08:24 435.822/435.867
AIST 1 28 Sep 17:08:28 17:12:40 57° 83° (E) 17:16:51
BEESAT 28 Sep 17:12:10 17:14:30 14° 292° (WNW) 17:16:51 436.000
KKS-1 28 Sep 17:13:31 17:17:53 58° 101° (E) 17:22:13 437.445
Cosmos 2491 28 Sep 17:20:52 17:26:56 20° 287° (WNW) 17:33:04 435.465 / 435.565
HORYU 2 28 Sep 17:25:09 17:29:04 32° 73° (ENE) 17:32:58 437.375
O/OREOS (USA 219) 28 Sep 17:29:48 17:33:32 24° 66° (ENE) 17:37:13 437.305
GOMX 1 28 Sep 17:37:10 17:37:45 10° 68° (ENE) 17:38:20 467.674
